Location: Les Salelles
(44.4192°N, 4.1044°E)
Time: 15:31:34
(UTC+00:00)

Okean 1-7 Rocket - Pass Details

Date: 20 January 2021
Orbit: 615 x 650 km, 82.5° (Epoch: 26 February)

Event Time Altitude Azimuth Distance (km) Brightness Sun altitude
Rises 17:33:29 0° 168° (SSE) 2,937 7.1 -10.2°
Reaches altitude 10° 17:35:48 10° 161° (SSE) 2,037 6.2 -10.6°
Maximum altitude 17:40:03 41° 92° (E) 945 4.1 -11.3°
Drops below altitude 10° 17:44:20 10° 23° (NNE) 2,063 5.9 -12.0°
Sets 17:46:42 0° 16° (NNE) 2,980 6.8 -12.4°
